TimeEEST,TemperatureF,Dew PointF,Humidity,Sea Level PressureIn,VisibilityMPH,Wind Direction,Wind SpeedMPH,Gust SpeedMPH,PrecipitationIn,Events,Conditions,WindDirDegrees,DateUTC
12:50 AM,71.6,55.4,57,30.04,6.2,Calm,Calm,-,N/A,,Mostly Cloudy,0,2013-09-21 21:50:00
1:50 AM,69.8,51.8,53,30.04,6.2,Calm,Calm,-,N/A,,Mostly Cloudy,0,2013-09-21 22:50:00
2:50 AM,69.8,53.6,56,30.04,6.2,Calm,Calm,-,N/A,,Mostly Cloudy,0,2013-09-21 23:50:00
3:50 AM,68.0,51.8,56,30.04,6.2,Calm,Calm,-,N/A,,Mostly Cloudy,0,2013-09-22 00:50:00
4:50 AM,69.8,51.8,53,30.04,6.2,NW,5.8,-,N/A,,Mostly Cloudy,320,2013-09-22 01:50:00
5:50 AM,69.8,51.8,53,30.04,6.2,Calm,Calm,-,N/A,,Mostly Cloudy,0,2013-09-22 02:50:00
6:20 AM,69.8,50.0,49,30.04,6.2,North,4.6,-,N/A,,Mostly Cloudy,360,2013-09-22 03:20:00
6:50 AM,68.0,50.0,52,30.04,6.2,North,4.6,-,N/A,,Mostly Cloudy,10,2013-09-22 03:50:00
7:20 AM,68.0,51.8,56,30.04,6.2,Calm,Calm,-,N/A,,Mostly Cloudy,0,2013-09-22 04:20:00
7:50 AM,68.0,51.8,56,30.06,6.2,Variable,3.5,-,N/A,,Mostly Cloudy,0,2013-09-22 04:50:00
8:20 AM,71.6,51.8,50,30.06,6.2,North,6.9,-,N/A,,Mostly Cloudy,350,2013-09-22 05:20:00
8:50 AM,71.6,50.0,46,30.06,6.2,North,9.2,-,N/A,,Scattered Clouds,10,2013-09-22 05:50:00
9:20 AM,73.4,48.2,41,30.06,6.2,NNE,10.4,-,N/A,,Scattered Clouds,30,2013-09-22 06:20:00
9:50 AM,75.2,44.6,34,30.06,6.2,North,11.5,-,N/A,,Scattered Clouds,360,2013-09-22 06:50:00
10:20 AM,75.2,44.6,34,30.06,6.2,North,15.0,-,N/A,,Scattered Clouds,360,2013-09-22 07:20:00
10:50 AM,75.2,44.6,34,30.06,6.2,North,12.7,-,N/A,,Scattered Clouds,360,2013-09-22 07:50:00
11:20 AM,77.0,46.4,34,30.06,6.2,NNE,13.8,-,N/A,,Scattered Clouds,20,2013-09-22 08:20:00
11:50 AM,75.2,50.0,41,30.06,6.2,North,12.7,-,N/A,,Scattered Clouds,10,2013-09-22 08:50:00
12:20 PM,73.4,50.0,44,30.06,6.2,North,9.2,-,N/A,,Scattered Clouds,360,2013-09-22 09:20:00
12:50 PM,73.4,50.0,44,30.06,6.2,North,8.1,-,N/A,,Scattered Clouds,360,2013-09-22 09:50:00
1:20 PM,75.2,48.2,38,30.06,6.2,North,4.6,-,N/A,,Mostly Cloudy,10,2013-09-22 10:20:00
1:50 PM,77.0,46.4,34,30.06,6.2,North,8.1,-,N/A,,Mostly Cloudy,350,2013-09-22 10:50:00
2:20 PM,75.2,48.2,38,30.06,6.2,NNW,10.4,-,N/A,,Mostly Cloudy,340,2013-09-22 11:20:00
2:50 PM,77.0,48.2,36,30.06,6.2,North,8.1,-,N/A,,Scattered Clouds,360,2013-09-22 11:50:00
3:20 PM,77.0,48.2,36,30.04,6.2,NNE,9.2,-,N/A,,Scattered Clouds,20,2013-09-22 12:20:00
3:50 PM,77.0,48.2,36,30.04,6.2,East,9.2,-,N/A,,Scattered Clouds,90,2013-09-22 12:50:00
4:20 PM,73.4,50.0,44,30.04,6.2,ENE,13.8,-,N/A,,Mostly Cloudy,70,2013-09-22 13:20:00
4:50 PM,75.2,46.4,36,30.04,6.2,NNE,11.5,-,N/A,,Mostly Cloudy,20,2013-09-22 13:50:00
5:20 PM,73.4,48.2,41,30.04,6.2,NNE,11.5,-,N/A,,Mostly Cloudy,20,2013-09-22 14:20:00
5:50 PM,73.4,48.2,41,30.04,6.2,North,10.4,-,N/A,,Mostly Cloudy,10,2013-09-22 14:50:00
6:20 PM,71.6,48.2,43,30.04,6.2,NE,6.9,-,N/A,,Mostly Cloudy,40,2013-09-22 15:20:00
6:50 PM,71.6,48.2,43,30.04,6.2,North,5.8,-,N/A,,Mostly Cloudy,350,2013-09-22 15:50:00
7:20 PM,69.8,48.2,46,30.04,6.2,NNE,6.9,-,N/A,,Scattered Clouds,20,2013-09-22 16:20:00
7:50 PM,69.8,48.2,46,30.04,6.2,North,4.6,-,N/A,,Scattered Clouds,10,2013-09-22 16:50:00
8:20 PM,69.8,48.2,46,30.04,6.2,North,6.9,-,N/A,,Scattered Clouds,360,2013-09-22 17:20:00
8:50 PM,69.8,48.2,46,30.04,6.2,North,4.6,-,N/A,,Scattered Clouds,10,2013-09-22 17:50:00
9:20 PM,68.0,48.2,49,30.04,6.2,North,3.5,-,N/A,,Scattered Clouds,360,2013-09-22 18:20:00
9:50 PM,68.0,48.2,49,30.06,6.2,North,4.6,-,N/A,,Scattered Clouds,360,2013-09-22 18:50:00
10:20 PM,66.2,48.2,52,30.06,6.2,NNW,4.6,-,N/A,,Scattered Clouds,330,2013-09-22 19:20:00
10:50 PM,66.2,48.2,52,30.06,6.2,NNW,4.6,-,N/A,,Scattered Clouds,330,2013-09-22 19:50:00
11:20 PM,66.2,48.2,52,30.06,6.2,NNW,6.9,-,N/A,,Partly Cloudy,330,2013-09-22 20:20:00
11:50 PM,66.2,48.2,52,30.06,6.2,NW,9.2,-,N/A,,Partly Cloudy,320,2013-09-22 20:50:00